Location: Newark
(51.2625°N, 13.3939°E)
Time: 05:38:52
(UTC+00:00)

Explorer 7 - Pass Details

Date: 12 November 2019
Orbit: 485 x 680 km, 50.3° (Epoch: 08 December)

Event Time Altitude Azimuth Distance (km) Brightness Sun altitude
Rises 03:31:57 0° 250° (WSW) 2,794 - -25.9°
Reaches altitude 10° 03:34:18 10° 248° (WSW) 1,861 - -25.5°
Maximum altitude 03:38:29 65° 166° (SSE) 597 - -24.8°
Exits shadow 03:38:58 58° 126° (SE) 629 7.2 -24.8°
Drops below altitude 10° 03:42:26 10° 85° (E) 1,754 10.5 -24.2°
Sets 03:44:35 0° 82° (E) 2,617 11.7 -23.9°
